This is the latest recevied weather packets stored in our database for station/object N0NB. If no packets are shown the sender has not sent any weather packets the latest 10 day(s).
| Time | Temp. | Humidity | Pressure | Rain* | Wind** | Luminosity | Snow |
|---|---|---|---|---|---|---|---|
| 1788144015 | 79° F | 81% | 756.1 mmHg | 0 in | - | 0 W/m² | - |
| 1788143416 | 79° F | 83% | 756 mmHg | 0 in | - | 0 W/m² | - |
| 1788142815 | 80° F | 82% | 755.8 mmHg | 0 in | - | 0 W/m² | - |
| 1788142215 | 80° F | 81% | 755.8 mmHg | 0 in | - | 0 W/m² | - |
| 1788141615 | 80° F | 82% | 755.6 mmHg | 0 in | - | 0 W/m² | - |
| 1788141015 | 81° F | 83% | 755.5 mmHg | 0 in | - | 0 W/m² | - |
| 1788140415 | 82° F | 82% | 755.5 mmHg | 0 in | - | 0 W/m² | - |
| 1788139815 | 84° F | 78% | 755.3 mmHg | 0 in | - | 0 W/m² | - |
| 1788139215 | 86° F | 75% | 755.3 mmHg | 0 in | - | 0 W/m² | - |
| 1788138615 | 87° F | 74% | 755.3 mmHg | 0 in | - | 0 W/m² | - |
| 1788138015 | 88° F | 71% | 755.3 mmHg | 0 in | - | 3 W/m² | - |
| 1788137415 | 89° F | 71% | 755.3 mmHg | 0 in | - | 9 W/m² | - |
| 1788136815 | 90° F | 71% | 755.5 mmHg | 0 in | - | 23 W/m² | - |
| 1788136215 | 91° F | 68% | 755.4 mmHg | 0 in | - | 36 W/m² | - |
| 1788135615 | 92° F | 67% | 755.5 mmHg | 0 in | - | 55 W/m² | - |
| 1788135015 | 92° F | 64% | 755.5 mmHg | 0 in | - | 79 W/m² | - |
| 1788134417 | 93° F | 63% | 755.5 mmHg | 0 in | - | 105 W/m² | - |
| 1788133817 | 94° F | 60% | 755.5 mmHg | 0 in | - | 136 W/m² | - |
| 1788133217 | 95° F | 59% | 755.5 mmHg | 0 in | - | 170 W/m² | - |
| 1788132617 | 96° F | 58% | 755.6 mmHg | 0 in | - | 206 W/m² | - |
| 1788132017 | 96° F | 57% | 755.6 mmHg | 0 in | - | 240 W/m² | - |
| 1788131417 | 96° F | 54% | 755.5 mmHg | 0 in | - | 280 W/m² | - |
| 1788130817 | 97° F | 51% | 755.6 mmHg | 0 in | - | 301 W/m² | - |
| 1788130217 | 97° F | 50% | 755.5 mmHg | 0 in | - | 342 W/m² | - |
| 1788129617 | 97° F | 50% | 755.6 mmHg | 0 in | - | 433 W/m² | - |
* Rain latest hour (hover to see other rain measurements)
** Current wind speed in m/s (hover to see current wind gust speed)